| time (UTC) | temp F | wind direction | speed MPH | gust MPH | rain 1hr in | rain 24hr in | rain mn in | humidity % | barometer mb |
| 20260506024114 | 78 | 5 | 2.0 | 6.0 | 0.00 | 0.00 | 0.00 | 36 | 1012.1 |
| 20260506023559 | 78 | 5 | 2.0 | 6.0 | 0.00 | 0.00 | 0.00 | 35 | 1012.0 |
| 20260506022113 | 79 | 9 | 2.0 | 6.0 | 0.00 | 0.00 | 0.00 | 33 | 1011.8 |
| 20260506021109 | 79 | 5 | 3.0 | 10.0 | 0.00 | 0.00 | 0.00 | 33 | 1011.8 |
| 20260506020609 | 80 | 350 | 2.0 | 8.0 | 0.00 | 0.00 | 0.00 | 32 | 1011.6 |
| 20260506014112 | 82 | 0 | 3.0 | 10.0 | 0.00 | 0.00 | 0.00 | 30 | 1011.5 |
| 20260506013611 | 83 | 9 | 2.0 | 13.0 | 0.00 | 0.00 | 0.00 | 31 | 1011.5 |
| 20260506012604 | 83 | 331 | 2.0 | 11.0 | 0.00 | 0.00 | 0.00 | 34 | 1011.5 |
| 20260506011114 | 83 | 11 | 2.0 | 9.0 | 0.00 | 0.00 | 0.00 | 34 | 1011.4 |
| 20260506010108 | 83 | 313 | 2.0 | 8.0 | 0.00 | 0.00 | 0.00 | 34 | 1011.4 |
| 20260506005112 | 83 | 271 | 2.0 | 8.0 | 0.00 | 0.00 | 0.00 | 34 | 1011.4 |
| 20260506004101 | 83 | 344 | 2.0 | 10.0 | 0.00 | 0.00 | 0.00 | 35 | 1011.3 |
| 20260506003101 | 83 | 273 | 2.0 | 6.0 | 0.00 | 0.00 | 0.00 | 36 | 1011.4 |
| 20260506002059 | 83 | 11 | 2.0 | 8.0 | 0.00 | 0.00 | 0.00 | 36 | 1011.4 |
| 20260506001101 | 83 | 211 | 2.0 | 8.0 | 0.00 | 0.00 | 0.00 | 37 | 1011.3 |
| 20260506000105 | 83 | 316 | 3.0 | 10.0 | 0.00 | 0.00 | 0.00 | 36 | 1011.4 |
| 20260505235541 | 83 | 15 | 2.0 | 10.0 | 0.00 | 0.00 | 0.00 | 38 | 1011.3 |
| 20260505234101 | 82 | 302 | 2.0 | 10.0 | 0.00 | 0.00 | 0.00 | 37 | 1011.4 |
| 20260505233106 | 82 | 313 | 2.0 | 6.0 | 0.00 | 0.00 | 0.00 | 36 | 1011.5 |
| 20260505232105 | 82 | 17 | 2.0 | 8.0 | 0.00 | 0.00 | 0.00 | 38 | 1011.6 |
| 20260505231055 | 83 | 273 | 2.0 | 10.0 | 0.00 | 0.00 | 0.00 | 37 | 1011.6 |
| 20260505230101 | 82 | 313 | 3.0 | 11.0 | 0.00 | 0.00 | 0.00 | 38 | 1011.7 |
| 20260505225057 | 82 | 323 | 2.0 | 11.0 | 0.00 | 0.00 | 0.00 | 37 | 1011.8 |
| 20260505223058 | 81 | 147 | 2.0 | 8.0 | 0.00 | 0.00 | 0.00 | 41 | 1012.1 |
| 20260505222054 | 80 | 317 | 2.0 | 8.0 | 0.00 | 0.00 | 0.00 | 39 | 1012.1 |
| 20260505221055 | 80 | 321 | 2.0 | 5.0 | 0.00 | 0.00 | 0.00 | 38 | 1012.3 |
| 20260505215100 | 79 | 40 | 3.0 | 8.0 | 0.00 | 0.00 | 0.00 | 36 | 1012.5 |
| 20260505214055 | 79 | 282 | 2.0 | 9.0 | 0.00 | 0.00 | 0.00 | 40 | 1012.7 |
| 20260505213550 | 78 | 303 | 2.0 | 8.0 | 0.00 | 0.00 | 0.00 | 42 | 1012.7 |
| 20260505212054 | 78 | 304 | 2.0 | 9.0 | 0.00 | 0.00 | 0.00 | 42 | 1012.8 |
| 20260505211054 | 77 | 313 | 2.0 | 5.0 | 0.00 | 0.00 | 0.00 | 43 | 1012.8 |
| 20260505210053 | 76 | 137 | 1.0 | 9.0 | 0.00 | 0.00 | 0.00 | 44 | 1013.0 |
| 20260505205053 | 74 | 61 | 2.0 | 10.0 | 0.00 | 0.00 | 0.00 | 44 | 1013.1 |
| 20260505204053 | 74 | 112 | 2.0 | 6.0 | 0.00 | 0.00 | 0.00 | 45 | 1013.2 |
| 20260505203052 | 73 | 355 | 2.0 | 5.0 | 0.00 | 0.00 | 0.00 | 47 | 1013.5 |
| 20260505202050 | 73 | 273 | 2.0 | 9.0 | 0.00 | 0.00 | 0.00 | 48 | 1013.7 |
| 20260505201049 | 72 | 34 | 3.0 | 9.0 | 0.00 | 0.00 | 0.00 | 50 | 1013.7 |
| 20260505200540 | 72 | 30 | 2.0 | 10.0 | 0.00 | 0.00 | 0.00 | 50 | 1013.9 |
| 20260505195053 | 72 | 297 | 2.0 | 8.0 | 0.00 | 0.00 | 0.00 | 49 | 1013.9 |
| 20260505194531 | 71 | 289 | 3.0 | 10.0 | 0.00 | 0.00 | 0.00 | 50 | 1013.9 |
| 20260505193050 | 72 | 322 | 2.0 | 9.0 | 0.00 | 0.00 | 0.00 | 49 | 1014.1 |
| 20260505192554 | 71 | 136 | 2.0 | 8.0 | 0.00 | 0.00 | 0.00 | 54 | 1014.1 |
| 20260505191046 | 70 | 298 | 2.0 | 10.0 | 0.00 | 0.00 | 0.00 | 54 | 1014.2 |
| 20260505190052 | 70 | 141 | 2.0 | 9.0 | 0.00 | 0.00 | 0.00 | 55 | 1014.2 |
| 20260505185534 | 69 | 349 | 2.0 | 6.0 | 0.00 | 0.00 | 0.00 | 56 | 1014.3 |
| 20260505184048 | 69 | 329 | 2.0 | 8.0 | 0.00 | 0.00 | 0.00 | 55 | 1014.4 |
| 20260505183047 | 69 | 355 | 3.0 | 10.0 | 0.00 | 0.00 | 0.00 | 56 | 1014.5 |
| 20260505182045 | 68 | 319 | 2.0 | 9.0 | 0.00 | 0.00 | 0.00 | 58 | 1014.5 |
| 20260505181048 | 67 | 279 | 1.0 | 5.0 | 0.00 | 0.00 | 0.00 | 62 | 1014.5 |
| 20260505180047 | 67 | 288 | 2.0 | 6.0 | 0.00 | 0.00 | 0.00 | 60 | 1014.6 |
| 20260505175526 | 66 | 10 | 1.0 | 5.0 | 0.00 | 0.00 | 0.00 | 60 | 1014.6 |
| 20260505174540 | 66 | 241 | 1.0 | 5.0 | 0.00 | 0.00 | 0.00 | 62 | 1014.6 |
| 20260505173046 | 65 | 119 | 2.0 | 6.0 | 0.00 | 0.00 | 0.00 | 64 | 1014.6 |
| 20260505172046 | 64 | 200 | 2.0 | 8.0 | 0.00 | 0.00 | 0.00 | 66 | 1014.7 |
| 20260505171042 | 63 | 243 | 1.0 | 4.0 | 0.00 | 0.00 | 0.00 | 67 | 1014.8 |
| 20260505170043 | 63 | 251 | 1.0 | 4.0 | 0.00 | 0.00 | 0.00 | 68 | 1014.8 |
| 20260505165051 | 62 | 279 | 1.0 | 5.0 | 0.00 | 0.00 | 0.00 | 70 | 1015.0 |
| 20260505164522 | 61 | 5 | 1.0 | 5.0 | 0.00 | 0.00 | 0.00 | 73 | 1015.0 |
| 20260505163037 | 60 | 26 | 1.0 | 4.0 | 0.00 | 0.00 | 0.00 | 73 | 1015.0 |
| 20260505162036 | 59 | 315 | 1.0 | 5.0 | 0.00 | 0.00 | 0.00 | 74 | 1015.0 |
| 20260505161037 | 59 | 331 | 1.0 | 3.0 | 0.00 | 0.00 | 0.00 | 78 | 1015.1 |
| 20260505153036 | 57 | 336 | 0.0 | 1.0 | 0.00 | 0.00 | 0.00 | 81 | 1015.0 |
| 20260505152044 | 56 | 336 | 0.0 | 1.0 | 0.00 | 0.00 | 0.00 | 82 | 1015.0 |
| 20260505151043 | 56 | 336 | 0.0 | 1.0 | 0.00 | 0.00 | 0.00 | 83 | 1014.9 |
| 20260505124027 | 55 | 318 | 1.0 | 4.0 | 0.00 | 0.00 | 0.00 | 83 | 1013.9 |
| 20260505123524 | 55 | 318 | 0.0 | 3.0 | 0.00 | 0.00 | 0.00 | 84 | 1013.8 |
| 20260505122505 | 55 | 318 | 1.0 | 3.0 | 0.00 | 0.00 | 0.00 | 84 | 1013.8 |
| 20260505121029 | 55 | 318 | 0.0 | 3.0 | 0.00 | 0.00 | 0.00 | 84 | 1013.7 |
| 20260505120027 | 55 | 318 | 1.0 | 4.0 | 0.00 | 0.00 | 0.00 | 84 | 1013.6 |
| 20260505115028 | 55 | 318 | 0.0 | 3.0 | 0.00 | 0.00 | 0.00 | 84 | 1013.5 |
| 20260505114025 | 55 | 318 | 0.0 | 3.0 | 0.00 | 0.00 | 0.00 | 85 | 1013.5 |
| 20260505113024 | 55 | 318 | 1.0 | 4.0 | 0.00 | 0.00 | 0.00 | 85 | 1013.4 |
| 20260505112028 | 54 | 319 | 1.0 | 5.0 | 0.00 | 0.00 | 0.00 | 86 | 1013.4 |
| 20260505111024 | 54 | 320 | 0.0 | 4.0 | 0.00 | 0.00 | 0.00 | 86 | 1013.2 |
| 20260505102026 | 55 | 294 | 0.0 | 1.0 | 0.00 | 0.00 | 0.00 | 81 | 1013.1 |
| 20260505101026 | 55 | 294 | 0.0 | 0.0 | 0.00 | 0.00 | 0.00 | 80 | 1013.0 |
| 20260505100027 | 55 | 294 | 0.0 | 1.0 | 0.00 | 0.00 | 0.00 | 80 | 1012.9 |
| 20260505095020 | 56 | 294 | 0.0 | 1.0 | 0.00 | 0.00 | 0.00 | 79 | 1013.0 |
| 20260505094026 | 56 | 294 | 0.0 | 1.0 | 0.00 | 0.00 | 0.00 | 79 | 1013.0 |
| 20260505093017 | 56 | 294 | 0.0 | 4.0 | 0.00 | 0.00 | 0.00 | 78 | 1013.0 |
| 20260505092015 | 57 | 294 | 1.0 | 4.0 | 0.00 | 0.00 | 0.00 | 78 | 1012.9 |
| 20260505091022 | 57 | 266 | 1.0 | 4.0 | 0.00 | 0.00 | 0.00 | 78 | 1012.9 |
| 20260505090020 | 57 | 263 | 0.0 | 3.0 | 0.00 | 0.00 | 0.00 | 77 | 1012.9 |
| 20260505085014 | 58 | 263 | 1.0 | 10.0 | 0.00 | 0.00 | 0.00 | 77 | 1012.9 |
| 20260505084018 | 58 | 288 | 1.0 | 8.0 | 0.00 | 0.00 | 0.00 | 77 | 1012.8 |
| 20260505083017 | 58 | 318 | 2.0 | 6.0 | 0.00 | 0.00 | 0.00 | 77 | 1012.8 |
| 20260505082018 | 58 | 0 | 2.0 | 8.0 | 0.00 | 0.00 | 0.00 | 77 | 1012.8 |
| 20260505081013 | 58 | 348 | 2.0 | 10.0 | 0.00 | 0.00 | 0.00 | 76 | 1012.7 |
| 20260505080445 | 59 | 344 | 2.0 | 10.0 | 0.00 | 0.00 | 0.00 | 76 | 1012.6 |
| 20260505075006 | 59 | 306 | 2.0 | 11.0 | 0.00 | 0.00 | 0.00 | 75 | 1012.6 |
| 20260505074013 | 59 | 312 | 2.0 | 6.0 | 0.00 | 0.00 | 0.00 | 75 | 1012.7 |
| 20260505073013 | 59 | 332 | 2.0 | 9.0 | 0.00 | 0.00 | 0.00 | 74 | 1012.6 |
| 20260505072008 | 59 | 318 | 2.0 | 11.0 | 0.00 | 0.00 | 0.00 | 74 | 1012.5 |
| 20260505071457 | 60 | 351 | 2.0 | 11.0 | 0.00 | 0.00 | 0.00 | 73 | 1012.4 |
| 20260505070459 | 60 | 315 | 2.0 | 10.0 | 0.00 | 0.00 | 0.00 | 73 | 1012.3 |
| 20260505065008 | 60 | 321 | 2.0 | 6.0 | 0.00 | 0.00 | 0.00 | 72 | 1012.2 |
| 20260505064002 | 61 | 345 | 2.0 | 6.0 | 0.00 | 0.00 | 0.00 | 71 | 1012.1 |
| 20260505063001 | 61 | 355 | 1.0 | 5.0 | 0.00 | 0.00 | 0.00 | 70 | 1012.0 |
| 20260505062002 | 62 | 355 | 2.0 | 6.0 | 0.00 | 0.00 | 0.00 | 69 | 1011.8 |
| 20260505061005 | 62 | 344 | 2.0 | 5.0 | 0.00 | 0.00 | 0.00 | 69 | 1011.7 |
| 20260505060440 | 63 | 313 | 1.0 | 5.0 | 0.00 | 0.00 | 0.00 | 68 | 1011.6 |
| 20260505054958 | 63 | 317 | 1.0 | 5.0 | 0.00 | 0.00 | 0.00 | 67 | 1011.5 |
| 20260505054006 | 64 | 309 | 2.0 | 9.0 | 0.00 | 0.00 | 0.00 | 66 | 1011.4 |
| 20260505053001 | 64 | 330 | 2.0 | 11.0 | 0.00 | 0.00 | 0.00 | 65 | 1011.3 |
| 20260505052451 | 65 | 348 | 2.0 | 8.0 | 0.00 | 0.00 | 0.00 | 65 | 1011.2 |
| 20260505050954 | 65 | 326 | 2.0 | 8.0 | 0.00 | 0.00 | 0.00 | 63 | 1011.1 |
| 20260505040953 | 68 | 280 | 2.0 | 10.0 | 0.00 | 0.00 | 0.00 | 59 | 1010.0 |
| 20260505035954 | 69 | 306 | 3.0 | 10.0 | 0.00 | 0.00 | 0.00 | 58 | 1009.8 |
| 20260505035433 | 69 | 259 | 2.0 | 11.0 | 0.00 | 0.00 | 0.00 | 56 | 1009.7 |
| 20260505033953 | 70 | 303 | 2.0 | 14.0 | 0.00 | 0.00 | 0.00 | 55 | 1009.5 |
| 20260505032950 | 71 | 281 | 2.0 | 11.0 | 0.00 | 0.00 | 0.00 | 54 | 1009.3 |
| 20260505032426 | 72 | 326 | 3.0 | 15.0 | 0.00 | 0.00 | 0.00 | 53 | 1009.0 |
| 20260505030951 | 73 | 283 | 4.0 | 14.0 | 0.00 | 0.00 | 0.00 | 51 | 1008.8 |
| 20260505025956 | 74 | 298 | 4.0 | 13.0 | 0.00 | 0.00 | 0.00 | 50 | 1008.6 |
| 20260505024956 | 75 | 311 | 4.0 | 14.0 | 0.00 | 0.00 | 0.00 | 47 | 1008.4 |